QB50P1

导读

QB50P1是欧盟QB50立方星项目中的一颗科学探测卫星,由比利时参与研发,于2014年6月19日发射升空。作为国际合作项目的组成部分,它承担着地球低热层大气原位探测任务,对完善地球大气模型有重要科学价值,验证了立方星开展低成本空间科学探测的可行性,推动了微小卫星领域的国际科研合作。

Basic Information
目录编号:
40025
目录名称:
QB50P1
国际标识:
2014-033R
轨道中心:
EARTH
卫星名称:
QB50P1
卫星全名:
--
卫星状态:
在轨 (已飞行4478 天)
发射日期:
2014-06-19 UTC
国别 :
比利时 (BE)
星等 :
--
This satellite is enrolled in the Space Conjunction Data Service (SCDS) and the current flight risk assessment level is: No High Risk
Orbit Information
数据来源 国际轨道数据
星历时间: 2026-09-21T15:56:46+0800
19小时前
查看轨道信息
半长轴: 6885.442km
偏心率: 0.0006953
轨道倾角: 98.097°
近地点辐角 252.467°
升交点赤经 282.319°
平近点角 107.581°
近地点: 502.517km
远地点: 512.093km
周期: 94.767分钟
每日圈数: 15.195154
Detailed Information
使用方式:
暂无
2D Orbit Map
3D Orbit Map
Orbit Altitude Analysis Chart
Orbit Inclination Analysis Chart
Orbit Comprehensive Analysis Chart
View Comprehensive Chart
Conjunction Data List
Event ID Objects TCA Miss Dist (km) Collision Risk Probability Collision Risk Index (CRI) Action
CDM_260922-061304-002505-745627
QB50P1 (40025)
2026-09-22T
06:13:34+0000
1.703 km
极远距离
3.746879E-6 低风险 0.46
CDM_260921-152804-002506-845725
QB50P1 (40025)
2026-09-21T
15:28:13+0000
1.717 km
极远距离
2.830567E-6 低风险 0.44
CDM_260921-152604-002506-727525
QB50P1 (40025)
2026-09-21T
15:26:17+0000
2.966 km
极远距离
8.86996E-7 极低风险 0.34
Miss Distance Evolution Trend with All Objects Subscribe to Flight Safety Assessment
Collision Probability Evolution Trend with All Objects Subscribe to Flight Safety Assessment